| time (UTC) | temp F | wind direction | speed MPH | gust MPH | rain 1hr in | rain 24hr in | rain mn in | humidity % | barometer mb |
| 20260831210047 | 69 | 267 | 0.0 | 5.0 | 0.01 | 1.22 | 1.20 | 33 | 1013.0 |
| 20260831204553 | 69 | 269 | 2.0 | 8.0 | 0.02 | 1.22 | 1.20 | 33 | 1013.0 |
| 20260831203057 | 69 | 260 | 3.0 | 9.0 | 0.04 | 1.21 | 1.19 | 33 | 1013.0 |
| 20260831201541 | 69 | 258 | 3.0 | 8.0 | 0.05 | 1.21 | 1.19 | 33 | 1013.2 |
| 20260831200041 | 69 | 257 | 1.0 | 8.0 | 0.06 | 1.21 | 1.19 | 33 | 1013.3 |
| 20260831194538 | 68 | 258 | 2.0 | 8.0 | 0.05 | 1.20 | 1.18 | 33 | 1013.4 |
| 20260831193037 | 68 | 266 | 4.0 | 10.0 | 0.02 | 1.17 | 1.14 | 33 | 1013.6 |
| 20260831191549 | 69 | 278 | 2.0 | 8.0 | 0.01 | 1.15 | 1.13 | 33 | 1013.7 |
| 20260831190034 | 68 | 276 | 3.0 | 9.0 | 0.00 | 1.14 | 1.12 | 33 | 1013.6 |
| 20260831184532 | 68 | 267 | 3.0 | 11.0 | 0.00 | 1.14 | 1.12 | 33 | 1013.6 |
| 20260831183029 | 68 | 237 | 4.0 | 9.0 | 0.04 | 1.14 | 1.12 | 33 | 1013.8 |
| 20260831181525 | 67 | 242 | 2.0 | 11.0 | 0.34 | 1.14 | 1.12 | 33 | 1013.9 |
| 20260831180027 | 67 | 241 | 1.0 | 9.0 | 0.39 | 1.14 | 1.12 | 33 | 1014.0 |
| 20260831174522 | 67 | 229 | 2.0 | 7.0 | 0.46 | 1.14 | 1.12 | 33 | 1014.2 |
| 20260831173020 | 67 | 256 | 2.0 | 7.0 | 0.48 | 1.11 | 1.09 | 33 | 1014.4 |
| 20260831171517 | 67 | 254 | 1.0 | 7.0 | 0.20 | 0.80 | 0.78 | 33 | 1014.6 |
| 20260831170023 | 67 | 244 | 5.0 | 12.0 | 0.18 | 0.75 | 0.73 | 33 | 1014.6 |
| 20260831164518 | 67 | 263 | 2.0 | 10.0 | 0.13 | 0.69 | 0.67 | 33 | 1014.7 |
| 20260831163016 | 67 | 236 | 2.0 | 9.0 | 0.07 | 0.63 | 0.61 | 33 | 1014.8 |
| 20260831161518 | 67 | 256 | 4.0 | 11.0 | 0.06 | 0.60 | 0.57 | 33 | 1015.0 |
| 20260831160016 | 67 | 252 | 4.0 | 9.0 | 0.09 | 0.56 | 0.55 | 33 | 1015.1 |
| 20260831154515 | 67 | 246 | 2.0 | 12.0 | 0.22 | 0.56 | 0.54 | 33 | 1015.1 |
| 20260831153014 | 67 | 258 | 4.0 | 9.0 | 0.28 | 0.56 | 0.54 | 33 | 1015.2 |
| 20260831151513 | 67 | 250 | 2.0 | 9.0 | 0.25 | 0.53 | 0.51 | 33 | 1015.2 |
| 20260831150013 | 67 | 265 | 3.0 | 9.0 | 0.22 | 0.48 | 0.46 | 33 | 1015.2 |
| 20260831144512 | 67 | 255 | 2.0 | 9.0 | 0.18 | 0.34 | 0.32 | 33 | 1015.2 |
| 20260831143011 | 67 | 247 | 2.0 | 6.0 | 0.16 | 0.28 | 0.26 | 33 | 1015.1 |
| 20260831141509 | 66 | 236 | 2.0 | 6.0 | 0.16 | 0.28 | 0.26 | 33 | 1015.1 |
| 20260831140012 | 66 | 232 | 0.0 | 3.0 | 0.14 | 0.26 | 0.24 | 33 | 1015.0 |
| 20260831134506 | 66 | 233 | 0.0 | 1.0 | 0.03 | 0.15 | 0.13 | 33 | 1015.3 |
| 20260831133015 | 66 | 238 | 0.0 | 7.0 | 0.00 | 0.12 | 0.10 | 33 | 1015.1 |
| 20260831131504 | 66 | 234 | 2.0 | 5.0 | 0.00 | 0.12 | 0.10 | 33 | 1015.0 |
| 20260831130003 | 65 | 231 | 0.0 | 2.0 | 0.00 | 0.12 | 0.10 | 33 | 1014.8 |
| 20260831124504 | 65 | 231 | 0.0 | 2.0 | 0.00 | 0.12 | 0.10 | 33 | 1014.9 |
| 20260831123101 | 65 | 231 | 2.0 | 10.0 | 0.01 | 0.12 | 0.10 | 33 | 1015.0 |
| 20260831121558 | 65 | 255 | 1.0 | 6.0 | 0.01 | 0.12 | 0.10 | 33 | 1015.0 |
| 20260831120058 | 65 | 260 | 0.0 | 2.0 | 0.01 | 0.12 | 0.10 | 34 | 1015.2 |
| 20260831114557 | 65 | 260 | 0.0 | 4.0 | 0.01 | 0.12 | 0.10 | 34 | 1015.1 |
| 20260831113057 | 65 | 261 | 1.0 | 3.0 | 0.00 | 0.11 | 0.09 | 33 | 1015.4 |
| 20260831111607 | 65 | 269 | 0.0 | 3.0 | 0.00 | 0.11 | 0.09 | 33 | 1015.4 |
| 20260831110056 | 65 | 269 | 0.0 | 1.0 | 0.00 | 0.11 | 0.09 | 33 | 1015.4 |
| 20260831104606 | 65 | 270 | 0.0 | 4.0 | 0.01 | 0.11 | 0.09 | 33 | 1015.2 |
| 20260831103104 | 65 | 270 | 0.0 | 3.0 | 0.03 | 0.11 | 0.09 | 33 | 1015.2 |
| 20260831101557 | 65 | 274 | 0.0 | 0.0 | 0.04 | 0.11 | 0.09 | 33 | 1015.1 |
| 20260831100053 | 65 | 274 | 0.0 | 1.0 | 0.05 | 0.11 | 0.09 | 33 | 1015.1 |
| 20260831094606 | 65 | 274 | 0.0 | 3.0 | 0.05 | 0.10 | 0.08 | 34 | 1015.2 |
| 20260831093053 | 65 | 274 | 1.0 | 3.0 | 0.06 | 0.08 | 0.06 | 34 | 1015.3 |
| 20260831091553 | 65 | 273 | 1.0 | 5.0 | 0.05 | 0.07 | 0.05 | 34 | 1015.2 |
| 20260831090058 | 65 | 274 | 1.0 | 5.0 | 0.04 | 0.06 | 0.04 | 34 | 1015.3 |
| 20260831084549 | 65 | 274 | 1.0 | 4.0 | 0.03 | 0.05 | 0.03 | 34 | 1015.4 |
| 20260831083059 | 65 | 274 | 0.0 | 4.0 | 0.00 | 0.02 | 0.00 | 34 | 1015.5 |
| 20260831081550 | 65 | 275 | 0.0 | 3.0 | 0.00 | 0.02 | 0.00 | 34 | 1015.6 |
| 20260831080051 | 65 | 275 | 0.0 | 4.0 | 0.00 | 0.02 | 0.00 | 34 | 1015.5 |
| 20260831074548 | 65 | 275 | 0.0 | 3.0 | 0.00 | 0.02 | 0.00 | 33 | 1015.4 |
| 20260831073055 | 65 | 275 | 0.0 | 3.0 | 0.00 | 0.02 | 0.00 | 34 | 1015.3 |
| 20260831071543 | 65 | 275 | 1.0 | 4.0 | 0.00 | 0.02 | 0.00 | 34 | 1015.6 |
| 20260831070050 | 65 | 275 | 1.0 | 3.0 | 0.00 | 0.02 | 0.00 | 34 | 1015.6 |
| 20260831064543 | 65 | 275 | 0.0 | 3.0 | 0.00 | 0.02 | 0.00 | 34 | 1015.7 |
| 20260831063043 | 65 | 275 | 1.0 | 5.0 | 0.00 | 0.02 | 0.00 | 34 | 1015.6 |
| 20260831061539 | 64 | 276 | 0.0 | 3.0 | 0.00 | 0.02 | 0.00 | 34 | 1015.7 |
| 20260831060042 | 64 | 276 | 0.0 | 5.0 | 0.00 | 0.02 | 0.00 | 34 | 1015.8 |
| 20260831054537 | 64 | 277 | 0.0 | 3.0 | 0.00 | 0.02 | 0.00 | 34 | 1015.8 |
| 20260831053039 | 64 | 277 | 0.0 | 2.0 | 0.00 | 0.02 | 0.00 | 34 | 1015.9 |
| 20260831051536 | 64 | 277 | 0.0 | 2.0 | 0.00 | 0.02 | 0.00 | 34 | 1015.8 |
| 20260831050045 | 64 | 277 | 0.0 | 3.0 | 0.00 | 0.02 | 0.00 | 34 | 1016.2 |
| 20260831044534 | 64 | 277 | 0.0 | 3.0 | 0.00 | 0.02 | 0.00 | 34 | 1016.4 |
| 20260831043030 | 64 | 277 | 0.0 | 5.0 | 0.00 | 0.02 | 0.00 | 34 | 1016.4 |
| 20260831041529 | 64 | 277 | 1.0 | 4.0 | 0.00 | 0.02 | 0.00 | 34 | 1016.2 |
| 20260831040028 | 64 | 279 | 1.0 | 5.0 | 0.00 | 0.02 | 0.00 | 35 | 1016.1 |
| 20260831034527 | 64 | 279 | 0.0 | 5.0 | 0.00 | 0.02 | 0.02 | 35 | 1016.1 |
| 20260831033027 | 64 | 281 | 1.0 | 4.0 | 0.00 | 0.02 | 0.02 | 35 | 1016.1 |
| 20260831031528 | 63 | 281 | 0.0 | 3.0 | 0.00 | 0.02 | 0.02 | 35 | 1016.3 |
| 20260831030025 | 63 | 281 | 0.0 | 3.0 | 0.00 | 0.02 | 0.02 | 35 | 1016.1 |
| 20260831024525 | 63 | 281 | 0.0 | 5.0 | 0.00 | 0.02 | 0.02 | 36 | 1016.1 |
| 20260831023024 | 63 | 282 | 1.0 | 5.0 | 0.00 | 0.02 | 0.02 | 36 | 1016.0 |
| 20260831021523 | 63 | 283 | 1.0 | 5.0 | 0.00 | 0.02 | 0.02 | 36 | 1016.2 |
| 20260831020024 | 63 | 283 | 1.0 | 5.0 | 0.00 | 0.02 | 0.02 | 37 | 1016.2 |
| 20260831014521 | 63 | 284 | 1.0 | 4.0 | 0.00 | 0.02 | 0.02 | 37 | 1016.2 |
| 20260831013020 | 64 | 285 | 1.0 | 5.0 | 0.00 | 0.02 | 0.02 | 37 | 1016.1 |
| 20260831011520 | 64 | 287 | 0.0 | 2.0 | 0.00 | 0.02 | 0.02 | 38 | 1016.0 |
| 20260831010029 | 64 | 287 | 0.0 | 2.0 | 0.01 | 0.02 | 0.02 | 38 | 1015.9 |
| 20260831004518 | 64 | 287 | 1.0 | 4.0 | 0.02 | 0.02 | 0.02 | 38 | 1015.8 |
| 20260831003015 | 64 | 287 | 1.0 | 4.0 | 0.02 | 0.02 | 0.02 | 38 | 1015.7 |
| 20260831001526 | 65 | 287 | 2.0 | 5.0 | 0.02 | 0.02 | 0.02 | 39 | 1015.5 |
| 20260831000016 | 65 | 287 | 1.0 | 4.0 | 0.01 | 0.01 | 0.01 | 39 | 1015.5 |
| 20260830234533 | 65 | 287 | 0.0 | 4.0 | 0.00 | 0.00 | 0.00 | 40 | 1015.4 |
| 20260830233013 | 65 | 311 | 1.0 | 4.0 | 0.00 | 0.00 | 0.00 | 40 | 1015.2 |
| 20260830231514 | 65 | 311 | 0.0 | 3.0 | 0.00 | 0.00 | 0.00 | 39 | 1015.1 |
| 20260830230028 | 66 | 312 | 0.0 | 2.0 | 0.00 | 0.00 | 0.00 | 39 | 1015.2 |
| 20260830224516 | 66 | 312 | 0.0 | 3.0 | 0.00 | 0.00 | 0.00 | 40 | 1015.2 |
| 20260830223017 | 66 | 312 | 0.0 | 4.0 | 0.00 | 0.00 | 0.00 | 40 | 1015.2 |
| 20260830221509 | 66 | 312 | 2.0 | 8.0 | 0.00 | 0.00 | 0.00 | 40 | 1015.2 |
| 20260830220023 | 66 | 312 | 3.0 | 8.0 | 0.00 | 0.00 | 0.00 | 39 | 1015.2 |
| 20260830214507 | 66 | 316 | 3.0 | 8.0 | 0.00 | 0.00 | 0.00 | 39 | 1015.2 |
| 20260830213008 | 66 | 311 | 2.0 | 5.0 | 0.00 | 0.00 | 0.00 | 39 | 1015.1 |
| 20260830211507 | 67 | 286 | 3.0 | 8.0 | 0.00 | 0.00 | 0.00 | 40 | 1015.2 |